Back to catalog

METEOR 2-12 DEB

LostPO
NORAD 59995·DEBRIS·🇷🇺 Russia

Launched Feb 6, 1985 from Plesetsk Cosmodrome

Loading…

Next Passes (next 24 hours)

TLE

StaleSource: Space-Track

Epoch: Aug 13, 2026, 06:33 UTC

1 59995U 85013F   26225.27303159  .00001325  00000-0  81463-3 0  9997
2 59995  82.5249 226.5177 0014709 287.1218  72.8343 14.04917671116037

Track METEOR 2-12 DEB in real time with AllMySat

Download on the App Store